Showing default

SKYSAT C1, 41601

Orbit data source: Space-Track

SKYSAT C1, 41601 is a payload satellite owned by Terra Bella (US) in SSO that was launched on Wed, 22 Jun 2016 UTC via a PSLV-XL launch vehicle from the Sirharikota (SRI). Payloads include a variety of satellites, spacecraft, and rockets equipped with specific instruments for various scientific and technological missions. These include communications satellites like Starlink; space stations such as the ISS; scientific satellites like the Hubble; Earth observation satellites from companies like Planet Labs, Umbra, and HawkEye 360; GPS; miniature CubeSats for education and research; and military/defense satellites.

Loading next visibility...
SKYSAT C1 details
Identifier
41601, 2016-040C
Orbit
SSO
Last TLE update19 hours ago
Origin
Flag of USTerra Bella (US)
ManufacturerSS/Loral (MDA)
MissionOperational Commercial Imaging
Bus & MotorSKYSAT-GEN2, Unknown motor
Mass110 kg wet, 110 kg dry
Launch date (UTC)
2016-06-22 (9 years ago)
Launch vehicle
PSLV-XL
Launch site
Sirharikota (SRI)
Object type
Payload
Rocket body
Debris
Shape & HBRBox, 1.2 m
Radar Cross Section0.888 m², Medium (>0.1 m² and < 1m²)

Expand to show TLE details & history

TLE from 19 hours ago
0 SKYSAT C1
1 41601U 16040C   24360.63618987  .00019056  00000-0  64123-3 0  9996
2 41601  97.0353  51.3571 0002813 116.0887 244.0645 15.30820509475428
Epoch: 2024-12-25T15:16Z
Definitive object data (Epoch: 2024-12-25T15:16:06.804Z)
Latitude-0.00002°
Longitude87.70166°
Altitude477.322 km
Speed7.627 km/s
True Right ascension03h 25m 25s
True Declination0° 00' 00"
Sunlit
Object was in full shadow at TLE epoch
Visualization TLE readout
Latitude-21.57139°
Longitude91.22289°
Altitude482.929 km
Speed7.622 km/s
Apparent Right ascension01h 02m 46s
Apparent Declination-40° 24' 25"
Sunlit
Object is in full shadow
Visualization observer readout
Local Sidereal Time09:21:06
Azimuth250.676° W
Elevation-48.368°
Doppler factor1
Orbital elements
Apogee altitude472.225 km
Perigee altitude468.372 km
Semi-major axis6,848.436 km
Eccentricity0.0002813
Inclination97.0353°
RAAN51.3571°
Arg. of periapsis116.0887°
True anomaly244.03552°
Mean anomaly244.0645°
Eccentric anomaly244.05001°
Mean motion3.82962 °/min
BSTAR0.00064123
Orbital period94 mins
Loading maneuver chart data...
Loading historical data...
Loading historical data...
Loading historical data...
Loading historical data...
Loading historical data...
Loading historical data...
Loading historical data...

SKYSAT C1 Visibility forecast

Observer location: undefined°, undefined

Span
Click to sort rows by Start time (UTC) header in descending order
Start Az.
Max El. time (UTC)
Max El. Az.
Max El.
End time (UTC)
End Az.
4 mins2024-12-26 16:56:59.283Z330.873° NNW2024-12-26 16:57:59.283Z299.536° NW29.855°2024-12-26 17:00:59.283Z222.86° SW
5 mins2024-12-27 03:29:59.283Z146.817° SSE2024-12-27 03:31:59.283Z46.622° ENE39.851°2024-12-27 03:34:59.283Z356.411° N
|